RH
35 56 49 48 47 54 64 83 92 99 94 84 85 91 83 71 59 53 49 48 50 62 40 26 27 27 27 26 27 27 26 24 23 23 23 22 20 20 19 18 14 11 12
41 42 56 54 51 53 64 78 96 99 87 98 83 87 85 72 64 54 49 48 45 55 52 27 27 28 28 26 29 27 27 25 23 22 22 22 21 20 19 15 13 14 16
49 44 60 55 57 55 62 74 89 96 97 89 90 93 96 89 78 68 57 52 42 47 52 34 29 29 29 23 25 26 24 22 23 23 22 25 23 20 19 18 17 19 23
52 51 56 60 59 58 63 72 88 99 94 96 97 92 93 88 83 69 54 46 40 36 46 39 30 30 29 26 25 25 24 23 23 22 20 19 22 20 19 20 20 24 32
60 57 57 62 64 65 67 75 94 97 98 94 98 87 91 97 87 72 63 50 45 35 34 37 36 34 31 28 27 26 25 24 23 20 19 19 20 20 20 20 25 32 38
68 60 65 67 71 70 70 77 92 92 98 99 96 86 81 92 91 83 70 54 46 37 26 34 38 36 31 32 31 30 26 25 25 23 21 19 22 20 21 22 32 40 39
72 63 71 77 75 74 74 83 87 98 96 96 100 85 90 86 95 90 75 56 44 33 26 29 32 36 32 29 30 30 27 26 25 24 23 20 25 23 24 32 41 43 43
75 67 69 90 78 76 80 83 82 95 93 91 98 91 94 92 97 97 84 63 48 31 23 29 29 31 35 28 28 28 27 28 27 25 24 20 24 27 32 41 43 45 45
76 72 69 93 82 77 83 79 79 91 95 99 97 98 97 95 88 97 93 76 60 42 28 28 30 31 34 33 32 29 28 29 28 25 23 20 23 37 36 45 45 46 44
65 74 74 92 87 85 81 84 83 94 98 99 98 95 98 97 92 97 92 94 71 57 41 33 32 30 32 32 30 30 30 29 27 27 24 22 24 42 45 48 46 46 48
61 71 74 94 87 90 86 86 89 97 96 97 100 99 95 97 95 99 88 98 81 67 54 46 40 31 32 36 31 29 30 32 30 30 28 25 27 39 48 49 48 49 53
60 67 78 95 98 90 88 94 90 91 92 98 98 97 99 97 91 90 93 96 90 76 65 56 53 46 42 41 38 34 32 35 33 32 32 29 31 39 49 53 54 59 57
64 61 76 86 93 90 92 88 87 93 91 98 98 98 99 98 95 95 98 94 93 82 74 66 53 52 53 53 50 44 36 36 37 36 36 34 36 45 56 61 63 64 64
64 58 67 83 93 92 91 96 92 91 96 98 99 99 98 97 95 97 92 95 97 90 74 81 62 54 52 53 57 60 58 48 48 47 45 46 50 54 63 67 68 66 59
57 60 59 78 83 91 91 90 88 92 93 96 96 96 98 99 98 97 98 97 93 99 92 77 86 67 58 58 59 59 61 60 59 59 57 55 53 57 60 61 60 59 57
55 56 59 70 81 83 91 89 90 96 97 97 96 98 98 98 99 96 98 96 97 99 99 87 82 86 68 65 65 66 64 60 53 49 48 45 42 47 53 55 58 60 59
47 51 57 63 71 80 86 89 89 93 96 98 97 97 95 96 97 98 98 98 98 98 99 97 91 93 90 72 65 68 67 62 57 52 45 41 39 39 46 50 55 58 60
38 44 46 55 66 72 77 84 86 92 95 95 96 97 97 98 98 98 98 97 98 96 98 98 97 93 92 90 80 72 74 72 65 61 54 46 42 37 39 45 53 56 56
30 37 42 46 55 65 69 76 81 87 90 95 96 95 97 95 93 91 94 94 97 97 94 94 97 96 97 95 87 88 87 83 75 74 66 58 52 44 40 41 49 53 54
26 30 39 43 47 53 65 71 77 82 84 85 94 98 97 92 93 91 91 92 90 95 94 95 95 96 92 90 92 96 93 95 84 84 80 75 68 61 53 49 47 51 52
23 27 30 39 44 49 57 64 70 77 82 85 83 88 89 89 89 87 89 90 91 94 94 94 94 89 90 90 88 91 97 95 98 95 92 97 88 80 74 69 60 57 55
22 23 28 32 42 46 52 57 67 71 75 79 82 81 88 84 86 89 90 90 89 93 94 94 97 97 93 90 89 90 97 97 99 97 97 96 96 91 90 88 86 78 76
22 23 26 28 37 46 49 53 59 67 70 73 77 78 81 90 87 88 89 89 86 88 93 92 92 92 91 91 90 90 92 96 97 96 96 94 97 96 96 95 97 97 96
22 25 25 28 31 40 52 51 53 57 66 69 74 75 79 83 88 90 91 89 87 87 90 91 91 93 93 94 93 92 92 90 94 97 97 96 95 97 99 97 98 98 98
21 25 27 26 31 33 41 51 53 54 56 61 64 71 76 79 81 80 88 94 90 88 90 90 92 89 88 90 90 90 91 95 92 94 97 96 95 98 99 99 98 98 99
23 23 27 28 28 33 36 42 51 54 54 55 59 62 67 75 79 79 79 84 89 91 89 88 89 90 87 85 85 86 90 92 92 94 90 91 92 96 97 98 98 97 98